This is the latest recevied weather packets stored in our database for station/object OM2RC-6. If no packets are shown the sender has not sent any weather packets the latest 10 day(s).
| Time | Temp. | Humidity | Pressure | Rain* | Wind** | Luminosity | Snow |
|---|---|---|---|---|---|---|---|
| 1777802750 | 21.11° C | 43% | 1021.1 hPa | - | - | - | - |
| 1777802148 | 20.56° C | 44% | 1021.2 hPa | - | - | - | - |
| 1777801847 | 20.56° C | 43% | 1021.1 hPa | - | - | - | - |
| 1777801546 | 20° C | 46% | 1021.3 hPa | - | - | - | - |
| 1777800943 | 19.44° C | 46% | 1021.3 hPa | - | - | - | - |
| 1777800642 | 19.44° C | 46% | 1021.4 hPa | - | - | - | - |
| 1777800341 | 18.89° C | 46% | 1021.3 hPa | - | - | - | - |
| 1777799740 | 18.89° C | 47% | 1021.5 hPa | - | - | - | - |
| 1777799439 | 18.89° C | 47% | 1021.4 hPa | - | - | - | - |
| 1777799138 | 18.89° C | 47% | 1021.4 hPa | - | - | - | - |
| 1777798837 | 18.89° C | 47% | 1021.5 hPa | - | - | - | - |
| 1777798234 | 18.89° C | 49% | 1021.6 hPa | - | - | - | - |
| 1777797932 | 18.33° C | 49% | 1021.6 hPa | - | - | - | - |
| 1777797631 | 18.33° C | 49% | 1021.7 hPa | - | - | - | - |
| 1777797329 | 18.33° C | 49% | 1021.4 hPa | - | - | - | - |
| 1777797028 | 18.33° C | 49% | 1021.5 hPa | - | - | - | - |
| 1777796727 | 18.33° C | 50% | 1021.4 hPa | - | - | - | - |
| 1777796427 | 18.33° C | 50% | 1021.4 hPa | - | - | - | - |
| 1777796125 | 17.78° C | 50% | 1021.4 hPa | - | - | - | - |
| 1777795824 | 18.33° C | 52% | 1021.4 hPa | - | - | - | - |
| 1777795523 | 17.78° C | 52% | 1021.4 hPa | - | - | - | - |
| 1777795222 | 17.78° C | 52% | 1021.2 hPa | - | - | - | - |
| 1777794917 | 17.78° C | 53% | 1021.3 hPa | - | - | - | - |
| 1777794615 | 17.22° C | 54% | 1021.3 hPa | - | - | - | - |
| 1777794315 | 17.22° C | 53% | 1021.4 hPa | - | - | - | - |
* Rain since midnight (hover to see other rain measurements)
** Current wind speed in m/s (hover to see current wind gust speed)